Regional Weather Roundup
Issued by NWS

Home | Current Version | Previous Version | Graphics & Text | Print | Product List | Glossary On
Versions: 1 2 3 4 5 6 7 8 9 10 11 12 13 14 15 16 17 18 19 20 21 22 23 24 25 26 27 28 29 30 31 32 33 34 35 36 37 38 39 40 41 42 43 44 45 46 47 48 49 50
000
ASUS43 KLMK 252202
RWRKY
KENTUCKY REGIONAL WEATHER ROUNDUP
NATIONAL WEATHER SERVICE LOUISVILLE KY
600 PM EDT SAT OCT 25 2014

NOTE "FAIR" INDICATES FEW OR NO CLOUDS BELOW 12,000 FEET
WITH NO SIGNIFICANT WEATHER AND/OR OBSTRUCTIONS TO VISIBILITY.

KYZ001>023-026-027-061>063-070>075-252300-
WESTERN AND SOUTH CENTRAL KENTUCKY

CITY           SKY/WX    TMP DP  RH WIND       PRES   REMARKS
PADUCAH        SUNNY     79  60  52 W6        29.99S
HENDERSON      SUNNY    N/A N/A N/A W7        29.97S
OWENSBORO      CLEAR     77  60  55 W7        29.98S
HOPKINSVILLE   SUNNY     76  62  61 NW6       30.00R
BOWLING GREEN  CLEAR     77  60  55 W7        29.99S
GLASGOW        NOT AVBL
$$

KYZ024-025-028>034-038-045-046-053-252300-
NORTH CENTRAL KENTUCKY

CITY           SKY/WX    TMP DP  RH WIND       PRES   REMARKS
LOUISVILLE/SDF PTCLDY    75  58  55 SW16      29.96S
LOUISVILLE/LOU CLEAR     75  58  55 W7        29.96F
FORT KNOX      CLEAR     74  59  59 W8        29.97S
$$

KYZ035>037-039>044-047>052-055>060-089>105-252300-
NORTHEAST KENTUCKY

CITY           SKY/WX    TMP DP  RH WIND       PRES   REMARKS
LEXINGTON      CLEAR     72  58  61 SW7       29.97R
COVINGTON      PTCLDY    72  51  47 W10       29.93R
FRANKFORT      CLEAR     72  57  59 W6        29.96S
$$

KYZ054-064>069-076>088-106>120-252300-
SOUTHEAST KENTUCKY

CITY           SKY/WX    TMP DP  RH WIND       PRES   REMARKS
JACKSON        CLEAR     66  53  63 VRB3      29.98S
LONDON         CLEAR     69  53  56 SW6       29.99F
SOMERSET       CLEAR     68  54  60 W7        30.01S
MIDDLESBORO    NOT AVBL
MONTICELLO     CLEAR     71  57  61 SW7       30.02S
$$




USA.gov is the U.S. government's official web portal to all federal, state and local government web resources and services.